Lid_Strength_Index
-1 -0 -0 1 7 6 9 8 6 7 6 4 4 4 5 4 5 7 1 -0 -0 -1 -2 -1 -1 -1 -2 -2 -2 -2 -2 -2 -2 -2 -2 -2 -2 -2 -1 -1 -1 -1 -1 -1 -1 -1 -1 -1 -1
1 1 1 3 8 10 9 7 7 6 5 4 4 4 4 5 3 2 1 -0 -1 -1 -2 -1 -1 -1 -2 -2 -2 -2 -2 -2 -2 -2 -2 -2 -2 -1 -1 -1 -1 -1 -1 -1 -1 -1 -1 -1 -1
1 -0 4 6 8 10 9 7 6 5 4 4 4 3 4 4 2 2 0 -0 -1 -1 -1 -2 -1 -1 -1 -2 -2 -2 -2 -2 -2 -2 -2 -2 -2 -2 -2 -2 -2 -2 -2 -2 -2 -2 -2 -2 -1
1 2 3 8 9 7 7 6 5 5 4 4 4 5 3 1 2 1 0 -0 -0 -0 -1 -2 -1 -1 -1 -1 -2 -1 -2 -2 -2 -2 -2 -2 -2 -2 -2 -1 -1 -2 -2 -2 -2 -2 -2 -2 -2
1 3 7 8 7 6 5 5 5 5 5 4 4 5 4 2 1 0 0 -0 -0 -0 -1 -1 -1 -1 -1 -1 -2 -1 -1 -2 -1 -2 -2 -2 -2 -2 -1 -1 -1 -1 -2 -2 -2 -2 -2 -2 -2
4 4 8 9 7 6 5 4 4 5 4 4 4 4 4 1 1 0 -0 -0 -1 -1 -1 -1 -1 -1 -1 -1 -1 -1 -1 -1 -1 -2 -2 -2 -2 -1 -1 -1 -1 -1 -1 -1 -1 -2 -2 -2 -2
5 6 8 7 7 7 6 4 4 4 4 4 3 5 3 2 1 0 0 -0 -1 -1 -1 -1 -1 -1 -1 -1 -1 -1 -1 -1 -1 -1 -1 -1 -1 -1 -1 -1 -1 -1 -1 -1 -2 -1 -2 -2 -2
4 5 8 7 8 8 5 4 4 4 5 2 3 5 4 2 0 0 0 -0 -0 -0 -1 -1 -1 -1 -1 -2 -1 -1 -1 -1 -1 -1 -1 -1 -1 -1 -1 -1 -1 -1 -1 -1 -1 -1 -1 -2 -2
3 7 8 8 7 7 4 5 4 3 4 3 2 3 2 1 0 1 1 1 0 0 -0 -1 -1 -1 -1 -1 -1 -1 -1 -1 -1 -1 -1 -1 -2 -2 -2 -2 -1 -1 -1 -1 -1 -1 -1 -1 -1
5 7 7 5 5 5 4 4 4 4 4 4 3 2 1 1 1 2 2 2 1 1 0 -0 -1 -1 -1 -1 -2 -1 -2 -2 -2 -2 -2 -2 -2 -2 -1 -2 -1 -1 -1 -1 -1 -1 -1 -1 -1
5 8 5 5 4 4 5 5 4 5 6 4 4 3 2 2 1 2 2 1 1 0 0 -0 -1 -1 -1 -1 -1 -1 -1 -1 -1 -2 -2 -2 -2 -2 -1 -1 -1 -2 -2 -1 -2 -1 -1 -2 -1
7 5 5 4 4 4 5 4 5 4 4 3 2 2 2 2 2 2 2 1 1 1 0 -0 -1 -1 -1 -1 -1 -1 -1 -1 -1 -1 -2 -1 -1 -1 -1 -1 -1 -1 -1 -1 -1 -1 -1 -1 -2
6 5 4 4 4 4 4 5 5 4 3 2 2 2 2 2 2 1 1 1 1 1 0 -0 -0 -0 -1 -1 -1 -1 -1 -1 -1 -1 -2 -1 -1 -1 -1 -1 -1 -1 -1 -1 -1 -1 -1 -1 -1
4 5 5 4 4 4 5 5 5 4 4 3 3 3 2 2 2 1 1 1 1 0 0 -0 -0 -1 -1 -0 -1 -1 -1 -1 -1 -1 -1 -2 -1 -1 -1 -1 -0 -1 -1 -1 -1 -1 -1 -1 -1
5 7 6 6 5 5 5 7 6 4 4 3 3 3 2 2 2 2 1 1 1 0 -0 0 -0 -0 -0 -0 -0 -1 -1 -1 -1 -1 -2 -2 -2 -1 -1 -0 -0 -1 -1 -1 -1 -1 -1 -0 -1
7 6 9 6 5 5 5 9 6 4 4 4 4 4 3 2 2 1 1 1 0 0 0 -0 0 -0 -0 -0 -0 -1 -1 -1 -1 -1 -1 -2 -2 -2 -1 -0 -0 -1 -1 -1 -1 -0 0 -0 0
8 10 9 8 5 6 7 8 6 4 4 4 4 4 3 3 2 1 1 1 0 0 0 0 -0 0 -0 -0 -0 -1 -1 -1 -1 -1 -1 -1 -1 -1 -1 -1 -0 -1 -1 -1 -0 -0 -0 0 0
10 9 9 8 6 6 7 7 6 4 5 5 4 4 4 3 3 1 1 1 0 0 0 0 0 -0 -0 -0 -0 -0 -0 -1 -1 -1 -1 -1 -1 -1 -1 -1 -1 -1 -0 -0 -0 -0 -0 0 0
9 9 9 7 6 7 7 7 6 5 5 5 4 4 4 3 2 1 1 1 1 1 1 0 0 0 0 1 1 1 1 0 -0 -1 -1 -1 -1 -1 -1 -0 -0 -1 0 1 -1 0 1 1 -0
10 10 10 7 6 7 7 8 6 5 5 5 4 4 4 3 2 2 2 2 1 1 1 1 0 0 0 0 -0 -0 -0 -0 -1 -1 -1 -1 -1 -1 -1 -0 -0 -0 0 -0 -0 0 1 1 -0
10 10 10 9 8 7 8 9 8 6 5 5 4 3 3 3 3 2 3 2 1 2 1 1 1 0 -0 -1 -0 0 -0 -0 0 0 0 -1 -1 -1 -1 -1 -0 -1 -1 0 0 0 1 2 1
11 8 9 9 10 12 8 12 9 7 6 5 5 4 4 3 2 2 3 2 2 2 1 1 0 0 -0 -1 -0 -0 1 1 0 -0 -1 -0 -1 -1 -1 -1 -1 -1 -1 -0 -0 -0 0 0 2
10 8 9 9 11 11 11 12 10 7 8 7 5 4 3 3 3 3 3 2 2 1 1 1 0 0 -0 -0 -1 1 0 0 -0 -0 0 -0 -1 -1 -1 -1 -1 -1 -1 -1 -1 -0 0 0 1
7 8 9 9 10 14 11 11 11 9 7 6 5 4 4 3 3 3 2 2 2 1 1 1 1 1 0 -0 -0 0 1 1 1 1 1 0 -0 -0 -1 -1 -1 -1 -1 -1 -0 -0 -0 -0 -0
8 9 13 14 14 14 10 11 10 7 6 5 5 4 4 4 3 3 3 3 2 2 1 1 1 1 0 0 0 0 0 1 1 1 0 1 1 0 -0 -1 -1 -1 -1 -1 -1 -0 -0 -0 0
10 9 12 16 15 13 9 12 10 6 5 4 4 4 4 4 3 3 3 3 2 2 2 1 1 1 1 0 0 -0 0 0 -0 0 -0 -0 0 0 -1 -1 -1 -1 -1 -1 -1 -0 0 -0 -0
9 10 8 10 10 12 10 9 7 6 5 5 4 4 4 4 4 3 3 2 2 2 2 1 1 1 1 0 0 0 0 0 0 0 -1 0 -0 -0 -0 -1 -1 -1 -1 -1 -1 -0 -0 0 0
7 7 11 10 14 15 12 11 10 8 6 5 5 5 5 4 4 3 3 2 2 2 1 1 1 1 1 0 0 0 0 0 0 -0 0 0 -0 -0 -0 -1 -1 -1 -0 -0 -0 0 0 1 1
9 9 8 8 10 13 14 11 7 7 6 5 5 5 5 4 4 3 3 2 2 1 1 1 1 1 1 1 0 0 0 0 0 -0 0 -0 -0 -0 -0 -0 -1 -0 0 -0 0 1 1 1 1
6 8 8 11 12 10 11 11 5 5 5 5 5 5 4 4 3 3 3 2 2 2 2 1 1 1 1 0 0 0 0 0 0 0 -0 -0 -0 -0 -0 -0 -0 -0 0 0 1 1 1 1 1